Starlink 32013

operational
NORAD ID: 60103 Int'l Des: 2024-117 Owner: SPXS Country: US Constellation: starlink
LEOCIRCULAR

Starlink 32013について

説明を読み込み中...

リアルタイム位置

3D地球を読み込み中...

次回通過

高度履歴

Altitude vs Time

uPlot chart will show altitude changes over time

軌道要素

1 60103U 24117N 25303.25228849 .00000160 00000-0 17536-4 0 9991
2 60103 53.1614 283.1570 0001304 93.9070 266.2080 15.30197007 76914
Epoch: Oct 30, 2025 • Age: 16 hours

現在のステータス

高度 475.8 km
速度 7.63 km/s
衛星直下点 3.48°N, 82.98°W
打ち上げ日 Jun 23, 2024
運用期間 1.3 years
タイプ internet

技術仕様

分類 Payload
質量 730.00 kg
乾燥質量 700.00 kg
総質量 730.00 kg
長さ 0.30 m
直径 4.10 m
スパン 29.00 m
形状 Box + pan
製造者 SPXS
バスタイプ Starlink V2M
フェーズステータス In Orbit
所有者/国 SPXS/US

大規模コンステレーション

Loading constellations...